Wausau, WI

12:00 AM CST on December 09, 2016 (GMT -0600)
Wausau Downtown

Weather History for KAUW - December, 2013

Change the Weather History Date:

Tuesday, December 17, 2013

  Actual Average Record
Temperature  
Mean Temperature 20 °F 18 °F  
Max Temperature 28 °F 26 °F 48 °F (1913)
Min Temperature 11 °F 11 °F -18 °F (1901)
Degree Days  
Heating Degree Days 45 47  
Month to date heating degree days 925 748  
Since 1 July heating degree days 2735 2607  
Cooling Degree Days 0 0  
Month to date cooling degree days 0 0  
Year to date cooling degree days 506 407  
Moisture  
Dew Point 14 °F    
Average Humidity 78    
Maximum Humidity 92    
Minimum Humidity 64    
Precipitation  
Precipitation 0.07 in 0.04 in 0.84 in (1990)
Month to date precipitation 1.01 0.79  
Year to date precipitation 37.96 31.84  
Snow  
Snow 1.40 in 0.40 in 11.20 in (1990)
Month to date snowfall 14.3 7.6  
Since 1 July snowfall 19.4 15.9  
Snow Depth 9.00 in    
Sea Level Pressure  
Sea Level Pressure 29.85 in    
Wind  
Wind Speed 10 mph (West)    
Max Wind Speed 20 mph    
Max Gust Speed 28 mph    
Visibility 6 miles    
Events Fog , Snow    
T = Trace of Precipitation, MM = Missing Value Source: NWS Daily Summary

Daily Weather History Graph

Daily Weather History Graph

Search for Another Location

Airport or City:

Trip Planner

Search our weather history database for the weather conditions in past years. The results will help you decide how hot, cold, wet, or windy it might be!

Date:

Astronomy

Dec. 17, 2013 Rise Set
Actual Time 7:31 AM CST 4:18 PM CST
Civil Twilight 6:57 AM CST 4:52 PM CST
Nautical Twilight 6:20 AM CST 5:29 PM CST
Astronomical Twilight 5:44 AM CST 6:05 PM CST
Moon 5:00 PM CST (12/17) 7:24 AM CST (12/17)
Length of Visible Light 9h 54m
Length of Day
8h 47m
Full, 100% of the Moon is Illuminated
Dec 17
Full
Dec 25
Last Quarter
Jan 1
New
Jan 7
First Quarter
Jan 15
Full

Hourly Weather History & Observations

Time (CST) Temp. Windchill Dew Point Humidity Pressure Visibility Wind Dir Wind Speed Gust Speed Precip Events Conditions
12:19 AM 12.2 °F -1.0 °F 8.6 °F 85% 29.86 in 1.5 mi WSW 10.4 mph - 0.00 in Snow Light Snow
12:47 AM 12.2 °F 0.7 °F 10.4 °F 92% 29.85 in 3.0 mi SW 8.1 mph - 0.00 in Snow Light Snow
12:54 AM 12.0 °F 2.7 °F 10.0 °F 92% 29.93 in 4.0 mi SW 5.8 mph - 0.00 in   Overcast
1:54 AM 12.0 °F 2.7 °F 10.0 °F 92% 29.93 in 4.0 mi SW 5.8 mph - N/A   Overcast
2:54 AM 12.9 °F 1.6 °F 10.9 °F 92% 29.89 in 2.0 mi SSW 8.1 mph - 0.00 in Snow Light Snow
2:59 AM 12.2 °F 0.7 °F 10.4 °F 92% 29.80 in 0.8 mi SSW 8.1 mph - 0.00 in Snow Light Snow
3:08 AM 12.2 °F 4.3 °F 10.4 °F 92% 29.79 in 0.8 mi South 4.6 mph - 0.00 in Snow Light Snow
3:15 AM 12.2 °F - 10.4 °F 92% 29.79 in 1.2 mi Calm Calm - 0.00 in Snow Light Snow
3:25 AM 12.2 °F 2.9 °F 10.4 °F 92% 29.78 in 0.5 mi SSW 5.8 mph - 0.00 in Fog , Snow Snow
3:30 AM 12.2 °F 2.9 °F 10.4 °F 92% 29.78 in 1.0 mi SSW 5.8 mph - 0.00 in Snow Light Snow
3:40 AM 12.2 °F 4.3 °F 10.4 °F 92% 29.78 in 2.0 mi SSW 4.6 mph - 0.00 in Snow Light Snow
3:50 AM 12.2 °F 2.9 °F 10.4 °F 92% 29.77 in 2.0 mi South 5.8 mph - 0.00 in Snow Light Snow
3:54 AM 12.9 °F 5.2 °F 10.9 °F 92% 29.86 in 2.5 mi SSW 4.6 mph - 0.00 in Snow Light Snow
4:02 AM 14.0 °F 5.1 °F 10.4 °F 86% 29.76 in 4.0 mi South 5.8 mph - 0.00 in Snow Light Snow
4:13 AM 14.0 °F 2.0 °F 10.4 °F 86% 29.76 in 2.0 mi SSW 9.2 mph - 0.00 in Snow Light Snow
4:24 AM 14.0 °F 3.9 °F 10.4 °F 86% 29.76 in 4.0 mi SSW 6.9 mph - 0.00 in   Overcast
4:37 AM 14.0 °F 5.1 °F 12.2 °F 93% 29.76 in 6.0 mi SW 5.8 mph - 0.00 in   Overcast
4:54 AM 14.0 °F 6.5 °F 12.0 °F 92% 29.84 in 5.0 mi SSW 4.6 mph - 0.00 in Snow Light Snow
5:03 AM 15.8 °F - 12.2 °F 86% 29.75 in 2.5 mi Calm Calm - 0.00 in Snow Light Snow
5:13 AM 15.8 °F 7.2 °F 12.2 °F 86% 29.75 in 2.5 mi SSW 5.8 mph - 0.00 in Snow Light Snow
5:20 AM 15.8 °F 8.6 °F 12.2 °F 86% 29.75 in 3.0 mi SW 4.6 mph - 0.00 in Snow Light Snow
5:54 AM 16.0 °F 8.8 °F 12.9 °F 88% 29.84 in 6.0 mi SW 4.6 mph - 0.00 in   Overcast
6:54 AM 17.1 °F - 14.0 °F 88% 29.84 in 5.0 mi Calm Calm - N/A   Overcast
7:02 AM 17.6 °F 10.7 °F 15.8 °F 93% 29.75 in 2.5 mi NW 4.6 mph - 0.00 in Snow Light Snow
7:11 AM 17.6 °F 9.3 °F 15.8 °F 93% 29.76 in 1.2 mi NW 5.8 mph - 0.00 in Snow Light Snow
7:28 AM 19.4 °F 10.4 °F 17.6 °F 93% 29.76 in 3.0 mi WNW 6.9 mph - 0.19 in Snow Light Snow
7:54 AM 21.0 °F 10.6 °F 18.0 °F 88% 29.84 in 6.0 mi WNW 9.2 mph - 0.19 in   Overcast
8:49 AM 21.2 °F 10.9 °F 17.6 °F 86% 29.79 in 6.0 mi NW 9.2 mph - N/A   Mostly Cloudy
8:54 AM 21.9 °F 11.7 °F 19.0 °F 89% 29.87 in 6.0 mi WNW 9.2 mph - N/A   Mostly Cloudy
9:54 AM 24.1 °F 18.2 °F 19.9 °F 84% 29.88 in 7.0 mi NW 4.6 mph - N/A   Overcast
10:32 AM 24.8 °F 16.1 °F 21.2 °F 86% 29.80 in 10.0 mi WNW 8.1 mph - N/A   Mostly Cloudy
10:41 AM 26.6 °F 16.8 °F 21.2 °F 80% 29.80 in 10.0 mi WNW 10.4 mph - N/A   Mostly Cloudy
10:54 AM 27.0 °F 18.0 °F 21.9 °F 81% 29.88 in 8.0 mi WNW 9.2 mph - 0.00 in Snow Light Snow
11:54 AM 27.0 °F 15.6 °F 21.0 °F 78% 29.86 in 10.0 mi WNW 13.8 mph 23.0 mph 0.00 in   Overcast
12:12 PM 26.6 °F 16.2 °F 19.4 °F 74% 29.79 in 9.0 mi WNW 11.5 mph - 0.00 in Snow Light Snow
12:54 PM 27.0 °F 14.7 °F 19.9 °F 75% 29.87 in 9.0 mi WNW 16.1 mph 27.6 mph 0.00 in   Overcast
1:21 PM 26.6 °F 16.2 °F 19.4 °F 74% 29.79 in 2.5 mi WNW 11.5 mph - 0.00 in Snow Light Snow
1:28 PM 26.6 °F 16.8 °F 19.4 °F 74% 29.79 in 6.0 mi WNW 10.4 mph - 0.00 in Snow Light Snow
1:54 PM 26.1 °F 12.7 °F 19.9 °F 78% 29.87 in 3.0 mi WNW 18.4 mph 25.3 mph 0.00 in Snow Light Snow
2:54 PM 26.1 °F 12.7 °F 18.0 °F 71% 29.88 in 10.0 mi West 18.4 mph 24.2 mph 0.00 in   Mostly Cloudy
3:03 PM 26.6 °F 16.2 °F 15.8 °F 64% 29.81 in 10.0 mi WNW 11.5 mph 21.9 mph N/A   Scattered Clouds
3:54 PM 25.0 °F 13.1 °F 17.1 °F 72% 29.91 in 10.0 mi WNW 13.8 mph 20.7 mph N/A   Overcast
4:54 PM 25.0 °F 13.6 °F 19.0 °F 78% 29.92 in 9.0 mi West 12.7 mph - 0.00 in Snow Light Snow
5:24 PM 24.8 °F 11.9 °F 19.4 °F 80% 29.86 in 2.5 mi West 16.1 mph 25.3 mph 0.00 in Snow Light Snow
5:26 PM 24.8 °F 11.1 °F 19.4 °F 80% 29.86 in 1.8 mi WNW 18.4 mph 25.3 mph 0.00 in Snow Light Snow
5:40 PM 23.0 °F 11.1 °F 19.4 °F 86% 29.87 in 2.5 mi NW 12.7 mph 23.0 mph 0.00 in Snow Light Snow
5:45 PM 23.0 °F 11.1 °F 17.6 °F 80% 29.87 in 7.0 mi NW 12.7 mph 20.7 mph 0.00 in Snow Light Snow
5:54 PM 23.0 °F 11.1 °F 18.0 °F 81% 29.95 in 9.0 mi WNW 12.7 mph 19.6 mph 0.00 in   Overcast
6:09 PM 23.0 °F 11.1 °F 15.8 °F 74% 29.88 in 10.0 mi WNW 12.7 mph - N/A   Overcast
6:54 PM 21.0 °F 7.6 °F 12.9 °F 71% 29.97 in 10.0 mi WNW 15.0 mph 21.9 mph 0.00 in   Overcast
7:04 PM 21.2 °F 7.3 °F 12.2 °F 68% 29.90 in 10.0 mi WNW 16.1 mph - N/A   Overcast
7:54 PM 19.0 °F 5.6 °F 10.0 °F 68% 30.00 in 10.0 mi WNW 13.8 mph - 0.00 in   Overcast
8:54 PM 18.0 °F 4.2 °F 8.1 °F 65% 30.01 in 10.0 mi West 13.8 mph - 0.00 in   Overcast
9:36 PM 17.6 °F 2.7 °F 6.8 °F 63% 29.95 in 10.0 mi WNW 16.1 mph - N/A   Overcast
9:54 PM 16.0 °F 2.9 °F 7.0 °F 68% 30.03 in 10.0 mi WNW 11.5 mph - N/A   Overcast
10:54 PM 14.0 °F 0.5 °F 3.9 °F 64% 30.04 in 10.0 mi WNW 11.5 mph - N/A   Mostly Cloudy
11:09 PM 12.2 °F -1.8 °F 3.2 °F 67% 29.97 in 10.0 mi WNW 11.5 mph - N/A   Scattered Clouds
11:54 PM 12.0 °F 0.5 °F 3.0 °F 67% 30.06 in 10.0 mi WNW 8.1 mph - N/A   Clear